This demonstration page uses our WeatherBlox Daily Observations layout. Learn more.

Left ArrowRight Arrow

Hourly Observations for November 25, 2021

Temp ( °F °C ) Dew Point ( °F °C ) Humidity (%) Winds ( mph kmh ) Pressure ( in mb ) Visibility ( mi km ) Precip ( " mm )
12:15 am 00:15 Mostly Cloudy 31 -0.7 22 -5.6 70 70 NNW 16 26 30.52 1033 10 16 0.00 0.00
12:35 am 00:35 Partly Cloudy 29 -1.4 21 -5.9 72 72 N 14 22 30.52 1034 10 16 0.00 0.00
12:55 am 00:55 Clear 28 -2.2 21 -6.2 74 74 N 13 20 30.54 1034 10 16 0.00 0.00
1:15 am 01:15 Clear 26 -3.2 20 -6.8 76 76 N 9 15 30.56 1035 10 16 0.00 0.00
1:35 am 01:35 Clear 24 -4.3 19 -7.2 80 80 NNW 8 13 30.58 1036 10 16 0.00 0.00
1:55 am 01:55 Clear 25 -3.7 17 -8.1 72 72 N 13 20 30.58 1035 10 16 0.00 0.00
2:15 am 02:15 Clear 25 -4.1 16 -8.7 71 71 NNW 12 19 30.58 1036 10 16 0.00 0.00
2:35 am 02:35 Clear 23 -5.1 17 -8.5 77 77 NNW 12 19 30.60 1036 10 16 0.00 0.00
2:55 am 02:55 Clear 23 -5 16 -8.7 76 76 NNW 12 19 30.61 1037 10 16 0.00 0.00
3:15 am 03:15 Clear 22 -5.5 16 -9 77 77 NNW 10 17 30.62 1037 10 16 0.00 0.00
3:35 am 03:35 Clear 19 -7.2 15 -9.5 84 84 WNW 7 11 30.64 1038 10 16 0.00 0.00
3:55 am 03:55 Clear 19 -7.5 15 -9.5 86 86 W 6 9 30.64 1037 10 16 0.00 0.00
4:15 am 04:15 Clear 18 -8 14 -9.8 87 87 NW 9 15 30.64 1038 10 16 0.00 0.00
4:35 am 04:35 Clear 17 -8.6 14 -10.2 88 88 W 7 11 30.64 1038 10 16 0.00 0.00
4:55 am 04:55 Clear 16 -9 13 -10.5 89 89 WNW 7 11 30.64 1038 10 16 0.00 0.00
5:15 am 05:15 Clear 16 -9.1 13 -10.7 88 88 WNW 8 13 30.65 1038 10 16 0.00 0.00
5:35 am 05:35 Clear 15 -9.5 12 -11 89 89 WNW 8 13 30.66 1038 10 16 0.00 0.00
5:55 am 05:55 Clear 15 -9.3 12 -11 88 88 WNW 8 13 30.66 1038 10 16 0.00 0.00
6:15 am 06:15 Clear 16 -8.8 13 -10.6 87 87 WNW 8 13 30.66 1038 10 16 0.00 0.00
6:35 am 06:35 Clear 15 -9.2 12 -11.1 86 86 WNW 8 13 30.66 1038 10 16 0.00 0.00
6:55 am 06:55 Clear 15 -9.3 12 -11.3 86 86 WNW 9 15 30.68 1039 10 16 0.00 0.00
7:15 am 07:15 Clear 15 -9.4 11 -11.4 86 86 WNW 7 11 30.68 1039 10 16 0.00 0.00
7:35 am 07:35 Clear 14 -9.8 11 -11.9 85 85 WNW 7 11 30.69 1039 10 16 0.00 0.00
7:55 am 07:55 Sunny 15 -9.7 11 -11.6 86 86 WNW 8 13 30.68 1039 10 16 0.00 0.00
8:15 am 08:15 Sunny 16 -9 12 -11 86 86 W 6 9 30.67 1039 10 16 0.00 0.00
8:35 am 08:35 Sunny 19 -7.5 14 -9.8 84 84 WNW 5 7 30.67 1038 10 16 0.00 0.00
8:55 am 08:55 Sunny 20 -6.5 15 -9.2 81 81 WNW 6 9 30.66 1038 10 16 0.00 0.00
9:15 am 09:15 Sunny 23 -5.2 17 -8.6 77 77 NW 8 13 30.63 1037 10 16 0.00 0.00
9:35 am 09:35 Sunny 24 -4.5 16 -8.8 72 72 NW 7 11 30.63 1037 10 16 0.00 0.00
9:55 am 09:55 Sunny 26 -3.6 16 -8.8 68 68 NW 8 13 30.63 1037 10 16 0.00 0.00
10:15 am 10:15 Sunny 27 -3 16 -9.1 63 63 WNW 6 9 30.61 1037 10 16 0.00 0.00
10:35 am 10:35 Sunny 28 -2.4 15 -9.2 60 60 WNW 6 9 30.60 1036 10 16 0.00 0.00
10:55 am 10:55 Sunny 29 -1.5 16 -8.8 58 58 W 5 7 30.58 1036 10 16 0.00 0.00
11:15 am 11:15 Sunny 30 -1.1 16 -8.7 57 57 Calm 30.57 1035 10 16 0.00 0.00
11:35 am 11:35 Sunny 32 0 17 -8.2 54 54 WSW 3 6 30.54 1034 10 16 0.00 0.00
11:55 am 11:55 Sunny 33 0.7 18 -7.9 53 53 SSW 3 6 30.52 1034 10 16 0.00 0.00
12:15 pm 12:15 Sunny 35 1.7 19 -7.4 51 51 SSW 6 9 30.51 1033 10 16 0.00 0.00
12:35 pm 12:35 Sunny 36 2.4 19 -7.1 50 50 SW 5 7 30.48 1032 10 16 0.00 0.00
12:55 pm 12:55 Sunny 38 3.1 20 -6.7 49 49 S 7 11 30.46 1031 10 16 0.00 0.00
1:15 pm 13:15 Sunny 39 4 21 -6.2 48 48 S 6 9 30.44 1031 10 16 0.00 0.00
1:35 pm 13:35 Sunny 40 4.7 22 -5.8 47 47 SSW 7 11 30.42 1030 10 16 0.00 0.00
1:55 pm 13:55 Sunny 42 5.4 22 -5.5 46 46 S 8 13 30.39 1029 10 16 0.00 0.00
2:15 pm 14:15 Sunny 42 5.8 22 -5.3 45 45 SSW 12 19 30.38 1029 10 16 0.00 0.00
2:35 pm 14:35 Sunny 43 5.9 22 -5.3 45 45 SSW 9 15 30.37 1028 10 16 0.00 0.00
2:55 pm 14:55 Sunny 43 6.2 22 -5.4 44 44 SW 12 19 30.36 1028 10 16 0.00 0.00
3:15 pm 15:15 Sunny 43 6.1 22 -5.4 44 44 SSW 9 15 30.35 1028 10 16 0.00 0.00
3:35 pm 15:35 Sunny 43 6.3 23 -5.2 44 44 SSW 13 20 30.35 1028 10 16 0.00 0.00
3:55 pm 15:55 Sunny 43 6.3 23 -5 45 45 SSW 9 15 30.34 1027 10 16 0.00 0.00
4:15 pm 16:15 Sunny 43 6 23 -5.2 45 45 SSW 9 15 30.33 1027 10 16 0.00 0.00
4:35 pm 16:35 Sunny 43 6 23 -5.1 45 45 S 8 13 30.33 1027 10 16 0.00 0.00
4:55 pm 16:55 Sunny 41 4.9 23 -5.1 49 49 S 9 15 30.33 1027 10 16 0.00 0.00
5:15 pm 17:15 Clear 38 3.6 23 -5.2 53 53 S 7 11 30.33 1027 10 16 0.00 0.00
5:35 pm 17:35 Clear 36 2.1 22 -5.6 57 57 SSE 8 13 30.35 1028 10 16 0.00 0.00
5:55 pm 17:55 Clear 34 1 21 -6.1 59 59 SSE 9 15 30.36 1028 10 16 0.00 0.00
6:15 pm 18:15 Clear 34 0.9 21 -6 60 60 SSE 8 13 30.35 1028 10 16 0.00 0.00
6:35 pm 18:35 Clear 36 2 22 -5.5 58 58 SSE 8 13 30.33 1027 10 16 0.00 0.00
6:55 pm 18:55 Partly Cloudy 37 2.5 22 -5.5 56 56 SSE 9 15 30.31 1027 10 16 0.00 0.00
7:15 pm 19:15 Mostly Cloudy 36 2.3 22 -5.5 57 57 S 9 15 30.31 1027 10 16 0.00 0.00
7:35 pm 19:35 Mostly Cloudy 38 3.1 22 -5.5 54 54 SSE 8 13 30.31 1026 10 16 0.00 0.00
7:55 pm 19:55 Mostly Cloudy 38 3.3 22 -5.3 54 54 SSE 8 13 30.30 1026 10 16 0.00 0.00
8:15 pm 20:15 Partly Cloudy 39 4 22 -5.4 51 51 SSE 7 11 30.28 1025 10 16 0.00 0.00
8:35 pm 20:35 Clear 39 4.1 22 -5.5 50 50 S 10 17 30.27 1025 10 16 0.00 0.00
8:55 pm 20:55 Clear 40 4.3 22 -5.5 49 49 SSW 13 20 30.26 1025 10 16 0.00 0.00
9:15 pm 21:15 Clear 39 3.8 22 -5.6 51 51 SSW 9 15 30.26 1025 10 16 0.00 0.00
9:35 pm 21:35 Clear 37 3 22 -5.7 53 53 SSW 3 6 30.26 1025 10 16 0.00 0.00
9:55 pm 21:55 Clear 36 2.3 22 -5.7 56 56 SSW 5 7 30.26 1025 10 16 0.00 0.00
10:15 pm 22:15 Clear 35 1.5 22 -5.6 60 60 SSW 10 17 30.25 1024 10 16 0.00 0.00
10:35 pm 22:35 Clear 34 0.9 22 -5.7 62 62 Calm 30.26 1025 10 16 0.00 0.00
10:55 pm 22:55 Clear 34 1.1 22 -5.6 61 61 SW 3 6 30.25 1024 10 16 0.00 0.00
11:15 pm 23:15 Clear 35 1.5 22 -5.5 60 60 SSW 6 9 30.23 1024 10 16 0.00 0.00
11:35 pm 23:35 Clear 33 0.8 22 -5.5 63 63 Calm 30.23 1024 10 16 0.00 0.00
11:55 pm 23:55 Clear 30 -1.1 20 -6.6 67 67 Calm 30.25 1024 10 16 0.00 0.00

Powered by AerisWeather